Montpelier, VT

1:36 AM EDT on May 27, 2018 (GMT -0400)
Knapp State

Weather History for KMPV - September, 2011

Change the Weather History Date:

Tuesday, September 13, 2011

  Actual Average Record
Temperature  
Mean Temperature 66 °F 59 °F  
Max Temperature 79 °F 70 °F 88 °F (1948)
Min Temperature 53 °F 47 °F 31 °F (1964)
Degree Days  
Heating Degree Days 0 7  
Month to date heating degree days 29 70  
Since 1 July heating degree days 64 178  
Cooling Degree Days 1 1  
Month to date cooling degree days 24 13  
Year to date cooling degree days 299 257  
Growing Degree Days 16 (Base 50)    
Moisture  
Dew Point 57 °F    
Average Humidity 74    
Maximum Humidity 100    
Minimum Humidity 47    
Precipitation  
Precipitation 0.02 in 0.10 in 2.16 in (1987)
Month to date precipitation 2.06 1.20  
Year to date precipitation 43.26 26.00  
Sea Level Pressure  
Sea Level Pressure 29.90 in    
Wind  
Wind Speed 7 mph (SW)    
Max Wind Speed 17 mph    
Max Gust Speed 28 mph    
Visibility 4 miles    
Events Fog    
T = Trace of Precipitation, MM = Missing Value Source: NWS Daily Summary

Daily Weather History Graph

Daily Weather History Graph

Search for Another Location

Airport or City:

Astronomy

Sep. 13, 2011 Rise Set
Actual Time 6:26 AM EDT 7:04 PM EDT
Civil Twilight 5:57 AM EDT 7:34 PM EDT
Nautical Twilight 5:22 AM EDT 8:08 PM EDT
Astronomical Twilight 4:46 AM EDT 8:44 PM EDT
Moon 7:13 PM EDT (9/13) 7:43 AM EDT (9/13)
Length of Visible Light 13h 36m
Length of Day
12h 38m
Full, 99% of the Moon is Illuminated
Sep 13
Full
Sep 20
Last Quarter
Sep 27
New
Oct 3
First Quarter
Oct 11
Full

Hourly Weather History & Observations

Time (EDT) Temp. Dew Point Humidity Pressure Visibility Wind Dir Wind Speed Gust Speed Precip Events Conditions
12:51 AM 59.0 °F 57.0 °F 93% 29.98 in 6.0 mi Calm Calm - N/A   Clear
1:48 AM 57.2 °F 55.4 °F 94% 29.98 in 4.0 mi Calm Calm - N/A   Scattered Clouds
1:51 AM 57.0 °F 55.9 °F 96% 29.97 in 1.0 mi Calm Calm - N/A   Mist
1:58 AM 57.2 °F 55.4 °F 94% 29.97 in 0.2 mi Calm Calm - N/A Fog Fog
2:51 AM 55.4 °F 55.4 °F 100% 29.96 in 0.2 mi Calm Calm - N/A Fog Fog
3:08 AM 55.4 °F 55.4 °F 100% 29.96 in 1.2 mi Calm Calm - N/A   Overcast
3:13 AM 55.4 °F 55.4 °F 100% 29.96 in 0.8 mi Calm Calm - N/A   Mist
3:51 AM 55.0 °F 55.0 °F 100% 29.94 in 0.2 mi Calm Calm - 0.01 in Fog Fog
4:02 AM 55.4 °F 55.4 °F 100% 29.95 in 2.0 mi Calm Calm - N/A   Mostly Cloudy
4:07 AM 55.4 °F 53.6 °F 94% 29.95 in 1.2 mi NNW 3.5 mph - N/A   Scattered Clouds
4:14 AM 55.4 °F 55.4 °F 100% 29.95 in 0.2 mi Calm Calm - N/A Fog Fog
4:51 AM 55.0 °F 55.0 °F 100% 29.94 in 0.2 mi Calm Calm - N/A Fog Fog
5:21 AM 53.6 °F 53.6 °F 100% 29.94 in 1.8 mi Calm Calm - N/A   Scattered Clouds
5:23 AM 53.6 °F 53.6 °F 100% 29.94 in 3.0 mi Calm Calm - N/A   Scattered Clouds
5:32 AM 53.6 °F 53.6 °F 100% 29.93 in 1.8 mi NW 3.5 mph - N/A   Scattered Clouds
5:34 AM 53.6 °F 53.6 °F 100% 29.93 in 0.8 mi NW 3.5 mph - N/A   Mist
5:51 AM 54.0 °F 54.0 °F 100% 29.93 in 0.5 mi Calm Calm - N/A Fog Fog
5:54 AM 53.6 °F 53.6 °F 100% 29.93 in 1.2 mi Calm Calm - N/A   Scattered Clouds
5:56 AM 53.6 °F 53.6 °F 100% 29.93 in 3.0 mi Calm Calm - N/A   Scattered Clouds
6:32 AM 53.6 °F 53.6 °F 100% 29.93 in 1.2 mi Calm Calm - N/A   Partly Cloudy
6:39 AM 53.6 °F 53.6 °F 100% 29.93 in 0.2 mi Calm Calm - N/A Fog Fog
6:51 AM 54.0 °F 54.0 °F 100% 29.94 in 0.2 mi Calm Calm - N/A Fog Fog
7:12 AM 53.6 °F 53.6 °F 100% 29.93 in 1.5 mi Calm Calm - N/A   Scattered Clouds
7:14 AM 55.4 °F 55.4 °F 100% 29.93 in 4.0 mi Calm Calm - N/A   Scattered Clouds
7:23 AM 53.6 °F 53.6 °F 100% 29.93 in 1.8 mi North 3.5 mph - N/A   Partly Cloudy
7:25 AM 55.4 °F 55.4 °F 100% 29.93 in 0.8 mi North 3.5 mph - N/A   Mist
8:01 AM 57.2 °F 57.2 °F 100% 29.92 in 1.5 mi Calm Calm - N/A   Scattered Clouds
8:03 AM 57.2 °F 57.2 °F 100% 29.92 in 3.0 mi Calm Calm - N/A   Scattered Clouds
8:05 AM 57.2 °F 57.2 °F 100% 29.92 in 1.8 mi Calm Calm - N/A   Scattered Clouds
8:07 AM 57.2 °F 57.2 °F 100% 29.92 in 1.0 mi Calm Calm - N/A   Mist
8:14 AM 59.0 °F 57.2 °F 94% 29.92 in 0.8 mi Calm Calm - N/A   Mist
8:17 AM 59.0 °F 59.0 °F 100% 29.92 in 1.2 mi Calm Calm - N/A   Partly Cloudy
8:19 AM 60.8 °F 59.0 °F 94% 29.92 in 2.5 mi Calm Calm - N/A   Partly Cloudy
8:26 AM 62.6 °F 60.8 °F 94% 29.91 in 9.0 mi Calm Calm - N/A   Clear
8:51 AM 64.0 °F 62.1 °F 93% 29.91 in 10.0 mi Calm Calm - N/A   Clear
9:51 AM 71.6 °F 60.8 °F 69% 29.91 in 10.0 mi Variable 5.8 mph - N/A   Clear
10:51 AM 73.9 °F 60.1 °F 62% 29.88 in 10.0 mi South 9.2 mph - N/A   Clear
11:51 AM 75.9 °F 60.1 °F 58% 29.86 in 10.0 mi SSW 9.2 mph 17.3 mph N/A   Clear
12:51 PM 77.0 °F 57.9 °F 52% 29.85 in 10.0 mi SSW 12.7 mph 20.7 mph N/A   Clear
1:51 PM 78.1 °F 57.0 °F 48% 29.82 in 10.0 mi SSW 10.4 mph 21.9 mph N/A   Clear
2:51 PM 77.0 °F 55.9 °F 48% 29.81 in 10.0 mi SSW 9.2 mph 24.2 mph N/A   Clear
3:51 PM 79.0 °F 57.9 °F 48% 29.79 in 10.0 mi South 15.0 mph 21.9 mph N/A   Partly Cloudy
4:51 PM 78.1 °F 59.0 °F 52% 29.78 in 10.0 mi South 9.2 mph 19.6 mph N/A   Clear
5:51 PM 75.0 °F 59.0 °F 57% 29.79 in 10.0 mi SSW 6.9 mph 17.3 mph N/A   Clear
6:51 PM 73.9 °F 60.1 °F 62% 29.78 in 10.0 mi SSW 9.2 mph 18.4 mph N/A   Clear
7:51 PM 70.0 °F 60.1 °F 71% 29.80 in 10.0 mi South 6.9 mph - N/A   Clear
8:51 PM 73.9 °F 59.0 °F 59% 29.80 in 10.0 mi SSW 12.7 mph 18.4 mph N/A   Clear
9:51 PM 73.0 °F 59.0 °F 61% 29.78 in 10.0 mi SSW 11.5 mph - N/A   Scattered Clouds
10:51 PM 73.0 °F 59.0 °F 61% 29.79 in 10.0 mi SW 10.4 mph 19.6 mph N/A   Mostly Cloudy
11:51 PM 73.9 °F 59.0 °F 59% 29.81 in 10.0 mi SW 10.4 mph 18.4 mph N/A   Mostly Cloudy